This is the latest recevied weather packets stored in our database for station/object SV9TNF-56. If no packets are shown the sender has not sent any weather packets the latest 10 day(s).
| Time | Temp. | Humidity | Pressure | Rain* | Wind** | Luminosity | Snow |
|---|---|---|---|---|---|---|---|
| 1788551243 | 24.44° C | 66% | 1012.5 hPa | 0 mm | 13.86 m/s, 291° | - | - |
| 1788550942 | 25° C | 65% | 1012.2 hPa | 0 mm | 24.59 m/s, 318° | - | - |
| 1788550642 | 24.44° C | 65% | 1012.2 hPa | 0 mm | 14.31 m/s, 330° | - | - |
| 1788550342 | 25° C | 65% | 1012.2 hPa | 0 mm | 15.2 m/s, 312° | - | - |
| 1788550042 | 25° C | 63% | 1012.2 hPa | 0 mm | 16.99 m/s, 295° | - | - |
| 1788549743 | 25° C | 62% | 1012.2 hPa | 0 mm | 13.86 m/s, 262° | - | - |
| 1788549442 | 24.44° C | 63% | 1012.2 hPa | 0 mm | 17.88 m/s, 259° | - | - |
| 1788549142 | 24.44° C | 64% | 1012.5 hPa | 0 mm | 17.88 m/s, 240° | - | - |
| 1788548842 | 24.44° C | 69% | 1012.2 hPa | 0 mm | 19.22 m/s, 346° | - | - |
| 1788548542 | 24.44° C | 68% | 1012.5 hPa | 0 mm | 21.9 m/s, 284° | - | - |
| 1788548242 | 24.44° C | 68% | 1012.2 hPa | 0 mm | 12.52 m/s, 318° | - | - |
| 1788547942 | 24.44° C | 69% | 1012.5 hPa | 0 mm | 14.75 m/s, 240° | - | - |
| 1788547643 | 24.44° C | 67% | 1012.2 hPa | 0 mm | 13.86 m/s, 172° | - | - |
| 1788547190 | 24.44° C | 70% | 1012.5 hPa | 0 mm | 12.52 m/s, 300° | - | - |
| 1788546890 | 24.44° C | 69% | 1012.2 hPa | 0 mm | 11.18 m/s, 282° | - | - |
| 1788546590 | 24.44° C | 67% | 1012.5 hPa | 0 mm | 27.27 m/s, 288° | - | - |
| 1788546290 | 24.44° C | 68% | 1012.2 hPa | 0 mm | 31.29 m/s, 268° | - | - |
| 1788545989 | 25° C | 68% | 1012.2 hPa | 0 mm | 13.41 m/s, 296° | - | - |
| 1788545689 | 25° C | 66% | 1011.9 hPa | 0 mm | 17.88 m/s, 222° | - | - |
| 1788545389 | 25° C | 64% | 1011.9 hPa | 0 mm | 22.35 m/s, 323° | - | - |
| 1788545089 | 25° C | 60% | 1011.9 hPa | 0 mm | 36.21 m/s, 290° | - | - |
| 1788544789 | 25° C | 66% | 1011.5 hPa | 0 mm | 24.59 m/s, 296° | - | - |
| 1788544489 | 24.44° C | 67% | 1011.9 hPa | 0 mm | 13.86 m/s, 312° | - | - |
| 1788544189 | 25° C | 66% | 1011.9 hPa | 0 mm | 23.25 m/s, 317° | - | - |
| 1788543889 | 25° C | 64% | 1011.5 hPa | 0 mm | 32.19 m/s, 253° | - | - |
* Rain latest hour (hover to see other rain measurements)
** Current wind speed in m/s (hover to see current wind gust speed)